« Back
NWS Peachtree City, Ga » Text Product » GA Regional Weather Roundup


Printer-friendly Version
Current Version              Previous Versions:   1  2  3  4  5  6  7  8  9  

Regional Weather Roundup

664
ASUS42 KFFC 231003
RWRGA
WEATHER ROUNDUP FOR GEORGIA
NATIONAL WEATHER SERVICE PEACHTREE CITY GA
600 AM EDT THU OCT 23 2014

NOTE: "FAIR" INDICATES FEW OR NO CLOUDS BELOW 12,000 FEET WITH NO
SIGNIFICANT WEATHER AND/OR OBSTRUCTIONS TO VISIBILITY.

* = USE WITH CAUTION. THE STATIONS MARKED WITH AN ASTERISK MAY NOT
REPORT WEATHER SUCH AS PRECIPITATION, FOG, OR THUNDER AND ARE NOT
QUALITY CONTROLLED BY NWS.

THE REMARK "TC" DENOTES TEMPERATURE READING IN DEGREES CELSIUS.

GAZ001>058-231100-
NORTH GEORGIA

CITY           SKY/WX    TMP DP  RH WIND       PRES   REMARKS
ATLANTA        CLEAR     46  41  82 N6        30.10S
ATHENS         CLEAR     40  38  93 CALM      30.11R
CHAMBLEE       CLEAR     43  39  86 CALM      30.11S
PEACHTREE CITY CLEAR     40  38  93 CALM      30.11R
ROME           CLEAR     41  38  89 N3        30.14R
WEST ATLANTA   CLEAR     42  39  89 CALM      30.12R
GAINESVILLE    CLEAR     44  41  89 CALM      30.12S
CARTERSVILLE   CLEAR     41  39  93 CALM      30.15R


CITY           SKY/WX    TMP DP  RH WIND       PRES   REMARKS
DALTON*        CLEAR     41  41 100 N8        30.16R
MARIETTA       CLEAR     42  40  94 NW2       30.11S
$$

GAZ059>098-102>109-231100-
CENTRAL GEORGIA

CITY           SKY/WX    TMP DP  RH WIND       PRES   REMARKS
AUGUSTA-BUSH   CLEAR     39  37  92 CALM      30.09S
AUGUSTA-DANIEL CLEAR     48  40  73 NW7       30.10S
COLUMBUS       CLEAR     47  42  83 CALM      30.09R
MACON          CLEAR     38  38 100 NW3       30.09R
ROBINS AFB     CLEAR     41  40  94 NW3       30.07F


CITY           SKY/WX    TMP DP  RH WIND       PRES   REMARKS
LAGRANGE*      CLEAR     44  41  92 CALM      30.10R
SYLVANIA*      CLEAR     47  46  96 CALM      30.09S
MILLEDGEVILLE* CLEAR     46  46 100 CALM      30.09F
$$

GAZ099>101-110>166-231100-
SOUTH GEORGIA

CITY           SKY/WX    TMP DP  RH WIND       PRES   REMARKS
SAVANNAH       CLEAR     48  43  82 NW3       30.08R
VALDOSTA       CLEAR     44  40  85 CALM      30.06R
ALMA           CLEAR     47  42  83 CALM      30.08R
ST SIMONS      CLEAR     51  49  92 N8        30.06R
FT STEWART     CLEAR     46  42  86 CALM      30.07R
ALBANY         CLEAR     46  43  89 CALM      30.09S
HUNTER AFB     CLEAR     49  44  83 N5        30.05S
MOODY AFB      CLEAR     46  42  87 CALM      30.06R
BRUNSWICK      CLEAR     50  46  87 N5        30.07R


CITY           SKY/WX    TMP DP  RH WIND       PRES   REMARKS
BAINBRIDGE*    CLEAR     48  46  93 CALM      30.06S
MOULTRIE*      CLEAR     52  46  82 NE3       30.06F
VIDALIA*       CLEAR     46  43  87 CALM      30.09R
WAYCROSS*      CLEAR     49  47  91 CALM      30.07S
DOUGLAS*       CLEAR     50  43  76 NE7       30.09S
$$



USA.gov is the U.S. government's official web portal to all federal, state and local government web resources and services.